This is the latest recevied weather packets stored in our database for station/object KI4AMD. If no packets are shown the sender has not sent any weather packets the latest 10 day(s).
| Time | Temp. | Humidity | Pressure | Rain* | Wind** | Luminosity | Snow |
|---|---|---|---|---|---|---|---|
| 1788135983 | 73° F | 90% | 766.5 mmHg | 0 in | - | 0 W/m² | - |
| 1788135678 | 74° F | 89% | 766.5 mmHg | 0 in | - | 0 W/m² | - |
| 1788135374 | 74° F | 88% | 766.3 mmHg | 0 in | - | 0 W/m² | - |
| 1788135069 | 74° F | 87% | 766.4 mmHg | 0 in | - | 0 W/m² | - |
| 1788134766 | 74° F | 88% | 766.4 mmHg | 0 in | - | 1 W/m² | - |
| 1788134466 | 75° F | 87% | 766.6 mmHg | 0 in | - | 2 W/m² | - |
| 1788134164 | 75° F | 84% | 766.5 mmHg | 0 in | - | 4 W/m² | - |
| 1788133859 | 76° F | 83% | 766.4 mmHg | 0 in | - | 7 W/m² | - |
| 1788133560 | 76° F | 82% | 766.3 mmHg | 0 in | - | 10 W/m² | - |
| 1788133256 | 77° F | 79% | 766.4 mmHg | 0 in | - | 14 W/m² | - |
| 1788132956 | 77° F | 79% | 766.6 mmHg | 0 in | - | 17 W/m² | - |
| 1788132652 | 77° F | 79% | 766.4 mmHg | 0 in | - | 21 W/m² | - |
| 1788132348 | 78° F | 78% | 766.5 mmHg | 0 in | - | 25 W/m² | - |
| 1788132044 | 78° F | 81% | 766.5 mmHg | 0 in | - | 28 W/m² | - |
| 1788131739 | 79° F | 81% | 766.4 mmHg | 0 in | - | 31 W/m² | - |
| 1788131438 | 79° F | 77% | 766.4 mmHg | 0 in | - | 33 W/m² | - |
| 1788131134 | 80° F | 74% | 766.3 mmHg | 0 in | - | 36 W/m² | - |
| 1788130829 | 80° F | 72% | 766.4 mmHg | 0 in | - | 39 W/m² | - |
| 1788130524 | 81° F | 71% | 766.5 mmHg | 0 in | - | 42 W/m² | - |
| 1788130223 | 81° F | 70% | 766.3 mmHg | 0 in | - | 44 W/m² | - |
| 1788129922 | 81° F | 72% | 766.3 mmHg | 0 in | - | 47 W/m² | - |
| 1788129619 | 82° F | 65% | 766.5 mmHg | 0 in | - | 50 W/m² | - |
| 1788129316 | 82° F | 64% | 766.5 mmHg | 0 in | - | 56 W/m² | - |
| 1788129015 | 83° F | 66% | 766.6 mmHg | 0 in | - | 63 W/m² | - |
| 1788128710 | 83° F | 65% | 766.3 mmHg | 0 in | - | 74 W/m² | - |
* Rain latest hour (hover to see other rain measurements)
** Current wind speed in m/s (hover to see current wind gust speed)